Regional Weather Roundup
Issued by NWS

Home | Current Version | Previous Version | Text Only | Print | Product List | Glossary On
Versions: 1 2 3 4 5 6 7 8 9 10 11 12 13 14 15 16 17 18 19 20 21 22 23 24 25 26 27 28 29 30 31 32 33 34 35 36 37 38 39 40 41 42 43 44 45 46 47 48 49 50
000
ASUS43 KTOP 210359
RWRKS

WEATHER ROUNDUP FOR KANSAS
NATIONAL WEATHER SERVICE GOODLAND KS
1000 PM CST SAT DEC 20 2014

NOTE:  "FAIR" INDICATES FEW OR NO CLOUDS BELOW 12,000 FEET WITH NO
SIGNIFICANT WEATHER AND/OR OBSTRUCTIONS TO VISIBILITY.

KSZ001>006-013>018-027>032-041>047-210500-
NORTHWEST KANSAS

CITY           SKY/WX    TMP DP  RH WIND       PRES   REMARKS
GOODLAND       CLOUDY    34  29  82 S10       29.93F WCI  26
HAYS           MOCLDY    34  27  75 CALM      30.00S
HILL CITY      PTCLDY    39  33  79 SW10      29.97F WCI  32
RUSSELL        MOCLDY    38  36  92 S17       29.99S WCI  28
$$

KSZ061>065-074>080-084>089-210500-
SOUTHWEST KANSAS

CITY           SKY/WX    TMP DP  RH WIND       PRES   REMARKS
DODGE CITY     PTCLDY    35  32  88 S14       30.00F WCI  26
ELKHART          N/A    N/A N/A N/A MISG        N/A
GARDEN CITY    CLEAR     31  30  96 S10       29.97F WCI  22
GREAT BEND     PTCLDY    37  30  75 S10       30.03F WCI  30
LIBERAL        CLEAR     34  28  80 S7        30.00F
$$

KSZ066>073-081>083-090>101-210500-
SOUTHEAST KANSAS

CITY           SKY/WX    TMP DP  RH WIND       PRES   REMARKS
CHANUTE        CLEAR     34  32  92 S7        30.16S
COFFEYVILLE    CLOUDY    42  36  79 S9        30.18S
HUTCHINSON     CLOUDY    43  36  76 S14       30.06F
MEDICINE LODGE   N/A     38  36  92 SE8       30.06F
NEWTON         CLOUDY    41  34  75 S17       30.08F
PARSONS        MOCLDY    35  33  92 S3        30.18S
WICHITA INTL   CLOUDY    43  37  79 S14       30.09F
WICHITA JABRA  CLOUDY    42  37  82 S13       30.09F
WINFIELD       CLOUDY    42  38  85 S9        30.14F
$$

KSZ007>012-019>026-033>040-048>060-102>105-210500-
NORTHEAST KANSAS

CITY           SKY/WX    TMP DP  RH WIND       PRES   REMARKS
CONCORDIA      MOCLDY    37  36  96 S15       30.01S WCI  28
EMPORIA        PTCLDY    35  33  92 S12       30.09F WCI  27
LAWRENCE       PTCLDY    36  33  89 S7        30.13S
MANHATTAN      PTCLDY    37  35  92 SW3       30.07F
OLATHE IND     PTCLDY    35  33  92 S13       30.13F WCI  26
OLATHE EXE     CLEAR     34  32  92 S10       30.12F FOG     WCI  26
SALINA         PTCLDY    40  36  86 S10       30.03F WCI  33
TOPEKA BILLARD PTCLDY   N/A N/A N/A S7        30.11S
TOPEKA FORBES  PTCLDY    39  34  82 S14       30.09S WCI  31
$$



USA.gov is the U.S. government's official web portal to all federal, state and local government web resources and services.